GW4532 Weather Reports


Display with metric or nautical units.
time (UTC)temp
F
wind
direction
speed
MPH
gust
MPH
rain 1hr
in
rain 24hr
in
rain mn
in
humidity
%
barometer
mb
20260906052016 67 0.0 0.0 0.00 0.10 0.00 93 1018.4
20260906051040 56 0.0 0.0 0.00 0.10 0.00 93 1018.5
20260906050024 68 0.0 0.0 0.00 0.10 0.00 92 1018.7
20260906045027 68 0.0 0.0 0.00 0.10 0.00 92 1018.8
20260906044031 69 0.0 0.0 0.00 0.10 0.00 92 1018.9
20260906043016 69 0.0 0.0 0.00 0.10 0.00 93 1018.9
20260906042140 69 0.0 0.0 0.00 0.10 0.00 93 1018.9
20260906041023 69 0.0 0.0 0.00 0.10 0.00 92 1018.9
20260906034031 69 0.0 0.0 0.00 0.10 0.10 91 1019.1
20260906033015 69 0.0 0.0 0.00 0.10 0.10 91 1019.4
20260906032025 70 0.0 0.0 0.00 0.10 0.10 91 1019.5
20260906031023 70 0.0 0.0 0.00 0.10 0.10 91 1019.4
20260906030121 70 0.0 0.0 0.00 0.10 0.10 91 1019.3
20260906025018 70 0.0 0.0 0.00 0.10 0.10 91 1019.2
20260906024015 70 0.0 0.0 0.00 0.10 0.10 91 1019.2
20260906023025 71 0.0 0.0 0.00 0.10 0.10 91 1019.1
20260906022028 71 0.0 0.0 0.00 0.10 0.10 91 1018.7
20260906021032 71 0.0 0.0 0.00 0.10 0.10 91 1018.9
20260906020018 71 0.0 0.0 0.00 0.10 0.10 91 1018.7
20260906015121 71 0.0 0.0 0.00 0.10 0.10 91 1018.7
20260906014025 71 0.0 0.0 0.00 0.10 0.10 89 1018.7
20260906013028 71 0.0 0.0 0.00 0.10 0.10 91 1018.7
20260906012032 72 0.0 0.0 0.00 0.10 0.10 91 1018.5
20260906011017 72 0.0 0.0 0.00 0.10 0.10 90 1018.2
20260906010020 72 0.0 0.0 0.00 0.10 0.10 90 1018.3
20260906005024 72 0.0 0.0 0.00 0.10 0.10 90 1018.1
20260906004048 72 0.0 0.0 0.00 0.10 0.10 90 1018.0
20260906003032 73 0.0 0.0 0.00 0.10 0.10 87 1018.1
20260906002034 73 0.0 0.0 0.00 0.10 0.10 88 1017.9
20260906001018 74 0.0 0.0 0.00 0.10 0.10 87 1017.8
20260906000021 74 0.0 0.0 0.00 0.10 0.10 86 1017.7
20260905235024 75 0.0 0.0 0.00 0.10 0.10 83 1017.6
20260905234027 75 0.0 0.0 0.00 0.10 0.10 81 1017.6
20260905233024 76 0.0 0.0 0.00 0.10 0.10 81 1017.7
20260905232022 77 0.0 0.0 0.00 0.10 0.10 80 1017.6
20260905231019 77 0.0 0.0 0.00 0.10 0.10 80 1017.5
20260905230017 77 0.0 0.0 0.00 0.10 0.10 77 1017.5
20260905225021 77 0.0 0.0 0.00 0.10 0.10 76 1017.6
20260905224024 78 0.0 0.0 0.00 0.10 0.10 75 1017.6
20260905223028 78 0.0 0.0 0.00 0.10 0.10 72 1017.5
20260905222031 80 0.0 0.0 0.00 0.10 0.10 68 1017.6
20260905221016 80 0.0 0.0 0.00 0.10 0.10 68 1017.7
20260905220120 80 0.0 0.0 0.00 0.10 0.10 68 1017.9
20260905215024 81 0.0 0.0 0.00 0.10 0.10 69 1018.0
20260905214027 81 0.0 0.0 0.00 0.10 0.10 67 1018.0
20260905213030 81 0.0 0.0 0.00 0.10 0.10 69 1018.1
20260905212017 81 0.0 0.0 0.00 0.10 0.10 70 1018.4
20260905211019 81 0.0 0.0 0.00 0.10 0.10 68 1018.3
20260905210023 80 0.0 0.0 0.00 0.10 0.10 70 1018.4
20260905205027 80 0.0 0.0 0.00 0.10 0.10 69 1018.4
20260905204030 81 0.0 0.0 0.00 0.10 0.10 68 1018.4
20260905203016 81 0.0 0.0 0.00 0.10 0.10 66 1018.5
20260905202019 82 0.0 0.0 0.00 0.10 0.10 61 1018.7
20260905201042 83 0.0 0.0 0.00 0.10 0.10 59 1018.7
20260905200024 87 0.0 0.0 0.00 0.10 0.10 52 1018.9
20260905195028 87 0.0 0.0 0.00 0.10 0.10 56 1018.9
20260905194025 67 0.0 0.0 0.00 0.10 0.10 65 1019.0
20260905193023 80 0.0 0.0 0.00 0.10 0.10 70 1019.3
20260905191018 78 0.0 0.0 0.00 0.10 0.10 72 1019.7
20260905190021 77 0.0 0.0 0.00 0.10 0.10 72 1019.9
20260905185025 77 0.0 0.0 0.00 0.10 0.10 74 1020.0
20260905184028 74 0.0 0.0 0.00 0.10 0.10 81 1019.9
20260905183032 73 0.0 0.0 0.10 0.10 0.10 81 1019.6
20260905182017 73 0.0 0.0 0.10 0.10 0.10 80 1019.9
20260905181021 74 0.0 0.0 0.10 0.10 0.10 79 1020.1
20260905180024 74 0.0 0.0 0.10 0.10 0.10 75 1020.0
20260905175028 76 0.0 0.0 0.10 0.10 0.10 71 1020.3
20260905174031 77 0.0 0.0 0.10 0.10 0.10 62 1020.3
20260905173017 85 1 4.0 8.0 0.00 0.00 0.00 49 1019.7
20260905172020 89 0.0 0.0 0.00 0.00 0.00 50 1019.3
20260905171124 87 0.0 0.0 0.00 0.00 0.00 56 1019.4
20260905170027 88 0.0 0.0 0.00 0.00 0.00 52 1019.3
20260905165031 92 0.0 0.0 0.00 0.00 0.00 49 1019.5
20260905164033 95 0.0 0.0 0.00 0.00 0.00 46 1019.7
20260905162021 94 0.0 0.0 0.00 0.00 0.00 49 1020.0
20260905161024 93 0.0 0.0 0.00 0.00 0.00 48 1020.0
20260905160027 93 0.0 0.0 0.00 0.00 0.00 49 1020.0
20260905155045 93 0.0 0.0 0.00 0.00 0.00 49 1020.0
20260905154022 93 0.0 0.0 0.00 0.00 0.00 50 1020.0
20260905153020 92 0.0 0.0 0.00 0.00 0.00 53 1020.1
20260905152017 90 0.0 0.0 0.00 0.00 0.00 56 1020.1
20260905151020 88 0.0 0.0 0.00 0.00 0.00 57 1020.1
20260905150024 87 0.0 0.0 0.00 0.00 0.00 59 1020.3
20260905145128 86 0.0 0.0 0.00 0.00 0.00 63 1020.3
20260905144031 84 0.0 0.0 0.00 0.00 0.00 67 1020.3
20260905143137 81 0.0 0.0 0.00 0.00 0.00 71 1020.3
20260905142020 79 0.0 0.0 0.00 0.00 0.00 74 1020.5
20260905141024 77 0.0 0.0 0.00 0.00 0.00 79 1020.7
20260905140027 75 0.0 0.0 0.00 0.00 0.00 83 1020.7
20260905135030 74 0.0 0.0 0.00 0.00 0.00 86 1020.8
20260905134016 73 0.0 0.0 0.00 0.00 0.00 86 1020.9
20260905133019 72 0.0 0.0 0.00 0.00 0.00 88 1021.0
20260905132023 72 0.0 0.0 0.00 0.00 0.00 89 1021.1
20260905131027 71 0.0 0.0 0.00 0.00 0.00 90 1021.1
20260905130130 70 0.0 0.0 0.00 0.00 0.00 91 1021.0
20260905125016 70 0.0 0.0 0.00 0.00 0.00 92 1021.0
20260905124019 69 0.0 0.0 0.00 0.00 0.00 92 1021.0
20260905123022 69 0.0 0.0 0.00 0.00 0.00 92 1020.9
20260905122025 69 0.0 0.0 0.00 0.00 0.00 92 1020.8
20260905121027 68 0.0 0.0 0.00 0.00 0.00 94 1020.8
20260905120025 68 0.0 0.0 0.00 0.00 0.00 94 1020.7
20260905115022 68 0.0 0.0 0.00 0.00 0.00 94 1020.6
20260905114020 68 0.0 0.0 0.00 0.00 0.00 94 1020.5
20260905113017 68 0.0 0.0 0.00 0.00 0.00 94 1020.3
20260905112021 68 0.0 0.0 0.00 0.00 0.00 94 1020.1
20260905111024 68 0.0 0.0 0.00 0.00 0.00 94 1019.9
20260905105031 68 0.0 0.0 0.00 0.00 0.00 94 1019.7
20260905104017 68 0.0 0.0 0.00 0.00 0.00 94 1019.7
20260905103020 68 0.0 0.0 0.00 0.00 0.00 94 1019.7
20260905102024 68 0.0 0.0 0.00 0.00 0.00 94 1019.7
20260905101027 68 0.0 0.0 0.00 0.00 0.00 94 1019.7
20260905100031 68 0.0 0.0 0.00 0.00 0.00 94 1019.6
20260905094020 68 0.0 0.0 0.00 0.00 0.00 94 1019.6
20260905093024 68 0.0 0.0 0.00 0.00 0.00 94 1019.5
20260905092128 68 0.0 0.0 0.00 0.00 0.00 94 1019.5
20260905091030 68 0.0 0.0 0.00 0.00 0.00 93 1019.6
20260905090033 68 0.0 0.0 0.00 0.00 0.00 94 1019.8
20260905085139 68 0.0 0.0 0.00 0.00 0.00 93 1019.9
20260905084021 68 0.0 0.0 0.00 0.00 0.00 93 1020.0
20260905083023 68 0.0 0.0 0.00 0.00 0.00 93 1020.0
20260905082107 68 0.0 0.0 0.00 0.00 0.00 93 1020.1
20260905081025 69 0.0 0.0 0.00 0.00 0.00 94 1020.3
20260905080022 69 0.0 0.0 0.00 0.00 0.00 92 1020.3
20260905075020 69 0.0 0.0 0.00 0.00 0.00 93 1020.4
20260905074017 51 0.0 0.0 0.00 0.00 0.00 93 1020.5
20260905073041 70 0.0 0.0 0.00 0.00 0.00 93 1020.5
20260905072146 70 0.0 0.0 0.00 0.00 0.00 93 1020.5
20260905071028 70 0.0 0.0 0.00 0.00 0.00 94 1020.5
20260905070031 70 0.0 0.0 0.00 0.00 0.00 93 1020.7
20260905065017 70 0.0 0.0 0.00 0.00 0.00 93 1020.8
20260905064020 70 0.0 0.0 0.00 0.00 0.00 93 1020.8
20260905063124 70 0.0 0.0 0.00 0.00 0.00 93 1020.8
20260905062028 61 0.0 0.0 0.00 0.00 0.00 93 1020.9
20260905061031 -12 0.0 0.0 0.00 0.00 0.00 93 1021.0
20260905060016 30 0.0 0.0 0.00 0.00 0.00 93 1021.1
20260905055020 70 0.0 0.0 0.00 0.00 0.00 92 1021.1
20260905054023 70 0.0 0.0 0.00 0.00 0.00 92 1021.1
20260905053027 70 0.0 0.0 0.00 0.00 0.00 92 1021.0